LXJ230 KPVD-KSYR

Flight info

Callsign LXJ230
Flight time 0h 51m
Altitude 36000
Route PUT CTR CAM SYR
Aircraft C25C/M-BGS/L

Departure

Time 2026-04-27 22:21
Airport Rhode Island T. F. Green International Airport (KPVD)

Arrival

Time 2026-04-27 23:13
Airport Syracuse Hancock International Airport (KSYR)
Time Latitude Longitude Altitude Speed Heading
2026-04-27 22:02 41.73205 -71.42667 56 ft 0 kts
2026-04-27 22:13 41.73194 -71.42667 56 ft 2 kts
2026-04-27 22:14 41.73183 -71.42659 56 ft 2 kts 274°
2026-04-27 22:14 41.73188 -71.42648 56 ft 0 kts 204°
2026-04-27 22:15 41.73183 -71.42652 56 ft 6 kts 226°
2026-04-27 22:15 41.73172 -71.42726 57 ft 10 kts 247°
2026-04-27 22:15 41.73028 -71.42856 56 ft 39 kts 210°
2026-04-27 22:15 41.72843 -71.43011 57 ft 21 kts 212°
2026-04-27 22:16 41.72687 -71.43143 59 ft 30 kts 213°
2026-04-27 22:16 41.72503 -71.43297 59 ft 34 kts 212°
2026-04-27 22:16 41.72301 -71.43467 54 ft 33 kts 212°
2026-04-27 22:16 41.72114 -71.43623 58 ft 23 kts 212°
2026-04-27 22:17 41.71988 -71.43598 53 ft 25 kts 121°
2026-04-27 22:17 41.71876 -71.43350 54 ft 25 kts 127°
2026-04-27 22:17 41.71728 -71.43382 55 ft 31 kts 212°
2026-04-27 22:17 41.71557 -71.43524 60 ft 24 kts 211°
2026-04-27 22:18 41.71456 -71.43584 59 ft 0 kts 165°
2026-04-27 22:20 41.71419 -71.43542 61 ft 10 kts 118°
2026-04-27 22:20 41.71426 -71.43461 61 ft 10 kts 33°
2026-04-27 22:20 41.71469 -71.43426 57 ft 0 kts 33°
2026-04-27 22:21 41.71615 -71.43301 58 ft 73 kts 32°
2026-04-27 22:21 41.72262 -71.42730 245 ft 138 kts 37°
2026-04-27 22:21 41.73205 -71.41960 896 ft 184 kts 21°
2026-04-27 22:22 41.74612 -71.42056 1781 ft 226 kts 346°
2026-04-27 22:22 41.76168 -71.42673 2785 ft 246 kts 347°
2026-04-27 22:22 41.77837 -71.43347 3009 ft 254 kts 346°
2026-04-27 22:22 41.79523 -71.44059 3348 ft 253 kts 346°
2026-04-27 22:23 41.81185 -71.44760 3765 ft 249 kts 346°
2026-04-27 22:23 41.82808 -71.45481 4275 ft 243 kts 342°
2026-04-27 22:23 41.84099 -71.46768 5208 ft 231 kts 312°
2026-04-27 22:23 41.85051 -71.48709 5886 ft 263 kts 307°
2026-04-27 22:24 41.86013 -71.50771 7254 ft 263 kts 306°
2026-04-27 22:24 41.86939 -71.52934 8490 ft 272 kts 303°
2026-04-27 22:24 41.87837 -71.55222 9647 ft 282 kts 302°
2026-04-27 22:24 41.88699 -71.57608 10833 ft 286 kts 299°
2026-04-27 22:25 41.89573 -71.60001 12063 ft 286 kts 302°
2026-04-27 22:25 41.90594 -71.62311 13190 ft 290 kts 307°
2026-04-27 22:25 41.91687 -71.64637 14222 ft 299 kts 304°
2026-04-27 22:25 41.92722 -71.67084 15251 ft 301 kts 303°
2026-04-27 22:26 41.93728 -71.69551 16432 ft 300 kts 303°
2026-04-27 22:26 41.94678 -71.72009 17577 ft 301 kts 302°
2026-04-27 22:26 41.95584 -71.74582 18523 ft 309 kts 300°
2026-04-27 22:26 41.96519 -71.77239 19261 ft 318 kts 301°
2026-04-27 22:27 41.97487 -71.79899 20411 ft 309 kts 302°
2026-04-27 22:27 41.98458 -71.82384 21956 ft 291 kts 306°
2026-04-27 22:27 41.99436 -71.84746 23161 ft 291 kts 306°
2026-04-27 22:27 42.00454 -71.87167 23873 ft 305 kts 307°
2026-04-27 22:28 42.01510 -71.89697 24582 ft 311 kts 306°
2026-04-27 22:28 42.02538 -71.92190 25710 ft 299 kts 306°
2026-04-27 22:28 42.03541 -71.94621 26727 ft 297 kts 305°
2026-04-27 22:28 42.04531 -71.97088 27283 ft 304 kts 308°
2026-04-27 22:29 42.05258 -71.98724 27606 ft 313 kts 305°
2026-04-27 22:29 42.06156 -72.01434 28360 ft 317 kts 301°
2026-04-27 22:29 42.07113 -72.04091 29174 ft 314 kts 305°
2026-04-27 22:29 42.08177 -72.06649 30016 ft 313 kts 306°
2026-04-27 22:30 42.09219 -72.09213 30791 ft 312 kts 305°
2026-04-27 22:30 42.10233 -72.11778 31513 ft 309 kts 305°
2026-04-27 22:30 42.11217 -72.14328 32265 ft 305 kts 305°
2026-04-27 22:30 42.12192 -72.16819 33029 ft 297 kts 306°
2026-04-27 22:31 42.13150 -72.19258 33673 ft 292 kts 306°
2026-04-27 22:31 42.14076 -72.21600 34318 ft 286 kts 306°
2026-04-27 22:31 42.15001 -72.23952 34886 ft 281 kts 306°
2026-04-27 22:31 42.15897 -72.26225 35423 ft 275 kts 305°
2026-04-27 22:32 42.16778 -72.28487 36008 ft 269 kts 305°
2026-04-27 22:32 42.17668 -72.30738 36231 ft 277 kts 304°
2026-04-27 22:32 42.18597 -72.33099 36250 ft 291 kts 304°
2026-04-27 22:32 42.19564 -72.35578 36230 ft 304 kts 304°
2026-04-27 22:33 42.20570 -72.38156 36237 ft 316 kts 303°
2026-04-27 22:33 42.22676 -72.43529 36241 ft 336 kts 303°
2026-04-27 22:34 42.24886 -72.49260 36239 ft 352 kts 303°
2026-04-27 22:34 42.27207 -72.55205 36242 ft 363 kts 303°
2026-04-27 22:35 42.29582 -72.61339 36231 ft 372 kts 303°
2026-04-27 22:35 42.31996 -72.67576 36245 ft 377 kts 303°
2026-04-27 22:36 42.34436 -72.73894 36252 ft 381 kts 303°
2026-04-27 22:36 42.36895 -72.80277 36258 ft 384 kts 302°
2026-04-27 22:37 42.39356 -72.86669 36260 ft 386 kts 302°
2026-04-27 22:37 42.41828 -72.93137 36263 ft 388 kts 302°
2026-04-27 22:38 42.44316 -72.99627 36240 ft 388 kts 302°
2026-04-27 22:38 42.46800 -73.06134 36244 ft 388 kts 302°
2026-04-27 22:39 42.49266 -73.12605 36239 ft 388 kts 302°
2026-04-27 22:39 42.51741 -73.19111 36242 ft 388 kts 302°
2026-04-27 22:40 42.54210 -73.25625 36241 ft 388 kts 302°
2026-04-27 22:40 42.56678 -73.32141 36231 ft 387 kts 302°
2026-04-27 22:41 42.59128 -73.38644 36229 ft 387 kts 302°
2026-04-27 22:41 42.61608 -73.45116 36223 ft 384 kts 305°
2026-04-27 22:42 42.64382 -73.51230 36237 ft 383 kts 305°
2026-04-27 22:42 42.66667 -73.57834 36235 ft 387 kts 300°
2026-04-27 22:43 42.69049 -73.64373 36236 ft 385 kts 302°
2026-04-27 22:43 42.71380 -73.70932 36223 ft 385 kts 301°
2026-04-27 22:44 42.73714 -73.77477 36225 ft 384 kts 301°
2026-04-27 22:44 42.75481 -73.84406 36222 ft 392 kts 290°
2026-04-27 22:45 42.76797 -73.91593 36222 ft 391 kts 291°
2026-04-27 22:45 42.78098 -73.98744 36224 ft 391 kts 290°
2026-04-27 22:46 42.79394 -74.05901 36227 ft 385 kts 290°
2026-04-27 22:46 42.80637 -74.12798 36230 ft 366 kts 290°
2026-04-27 22:47 42.81835 -74.19418 36234 ft 354 kts 291°
2026-04-27 22:47 42.82996 -74.25850 36233 ft 347 kts 291°
2026-04-27 22:48 42.84136 -74.32232 35878 ft 352 kts 291°
2026-04-27 22:48 42.84719 -74.35487 35632 ft 355 kts 291°
2026-04-27 22:48 42.85304 -74.38781 35360 ft 358 kts 290°
2026-04-27 22:48 42.85891 -74.42087 35121 ft 358 kts 290°
2026-04-27 22:49 42.86475 -74.45385 34784 ft 357 kts 290°
2026-04-27 22:49 42.87056 -74.48664 34429 ft 353 kts 290°
2026-04-27 22:49 42.87627 -74.51917 34045 ft 350 kts 290°
2026-04-27 22:49 42.88195 -74.55099 33639 ft 348 kts 290°
2026-04-27 22:50 42.88759 -74.58302 33240 ft 346 kts 290°
2026-04-27 22:50 42.89323 -74.61503 32837 ft 345 kts 290°
2026-04-27 22:50 42.89883 -74.64694 32443 ft 345 kts 290°
2026-04-27 22:50 42.90443 -74.67883 32054 ft 346 kts 290°
2026-04-27 22:51 42.90918 -74.71074 31676 ft 352 kts 284°
2026-04-27 22:51 42.90923 -74.74464 31300 ft 364 kts 272°
2026-04-27 22:51 42.90415 -74.77907 30928 ft 375 kts 262°
2026-04-27 22:51 42.89610 -74.81314 30565 ft 380 kts 259°
2026-04-27 22:52 42.88707 -74.84717 30192 ft 382 kts 258°
2026-04-27 22:52 42.87772 -74.88130 29770 ft 386 kts 257°
2026-04-27 22:52 42.86822 -74.91571 29360 ft 390 kts 257°
2026-04-27 22:52 42.85873 -74.95053 28955 ft 393 kts 257°
2026-04-27 22:53 42.84923 -74.98555 28539 ft 395 kts 257°
2026-04-27 22:53 42.83985 -75.02105 28114 ft 397 kts 257°
2026-04-27 22:53 42.83042 -75.05671 27697 ft 399 kts 257°
2026-04-27 22:53 42.82116 -75.09243 27267 ft 400 kts 257°
2026-04-27 22:54 42.81227 -75.12750 26863 ft 393 kts 257°
2026-04-27 22:54 42.80352 -75.16249 26459 ft 388 kts 257°
2026-04-27 22:54 42.79497 -75.19712 26057 ft 385 kts 257°
2026-04-27 22:54 42.78657 -75.23153 25660 ft 382 kts 257°
2026-04-27 22:55 42.77825 -75.26593 25279 ft 381 kts 257°
2026-04-27 22:55 42.77076 -75.30038 24923 ft 375 kts 264°
2026-04-27 22:55 42.76876 -75.33544 24561 ft 368 kts 274°
2026-04-27 22:55 42.76883 -75.37025 24211 ft 367 kts 276°
2026-04-27 22:56 42.76971 -75.40497 23866 ft 367 kts 277°
2026-04-27 22:56 42.77075 -75.43923 23456 ft 367 kts 277°
2026-04-27 22:56 42.77211 -75.47386 23046 ft 366 kts 277°
2026-04-27 22:56 42.77357 -75.50843 22646 ft 366 kts 277°
2026-04-27 22:57 42.77517 -75.54293 22252 ft 365 kts 277°
2026-04-27 22:57 42.77677 -75.57744 21863 ft 364 kts 277°
2026-04-27 22:57 42.77849 -75.61178 21474 ft 362 kts 277°
2026-04-27 22:57 42.78018 -75.64588 21097 ft 359 kts 278°
2026-04-27 22:58 42.78196 -75.67974 20723 ft 358 kts 277°
2026-04-27 22:58 42.78373 -75.71308 20358 ft 356 kts 278°
2026-04-27 22:58 42.78559 -75.74667 19991 ft 355 kts 277°
2026-04-27 22:58 42.78751 -75.78015 19631 ft 354 kts 278°
2026-04-27 22:59 42.78950 -75.81348 19243 ft 352 kts 277°
2026-04-27 22:59 42.79163 -75.84656 18822 ft 350 kts 278°
2026-04-27 22:59 42.79382 -75.87946 18390 ft 347 kts 277°
2026-04-27 22:59 42.79611 -75.91207 17911 ft 345 kts 278°
2026-04-27 23:00 42.80076 -75.97678 16957 ft 342 kts 277°
2026-04-27 23:00 42.80315 -76.00892 16508 ft 340 kts 278°
2026-04-27 23:00 42.80556 -76.04050 16062 ft 339 kts 278°
2026-04-27 23:01 42.80801 -76.07236 15614 ft 338 kts 277°
2026-04-27 23:01 42.81050 -76.10409 15175 ft 335 kts 278°
2026-04-27 23:01 42.81298 -76.13549 14743 ft 331 kts 277°
2026-04-27 23:01 42.81534 -76.16659 14308 ft 328 kts 277°
2026-04-27 23:02 42.81783 -76.19731 13871 ft 326 kts 278°
2026-04-27 23:02 42.82139 -76.22766 13386 ft 322 kts 288°
2026-04-27 23:02 42.83191 -76.25384 12920 ft 320 kts 304°
2026-04-27 23:02 42.84471 -76.27855 12464 ft 319 kts 306°
2026-04-27 23:03 42.85807 -76.30262 12010 ft 318 kts 308°
2026-04-27 23:03 42.87163 -76.32649 11567 ft 318 kts 308°
2026-04-27 23:03 42.88537 -76.35023 11127 ft 318 kts 308°
2026-04-27 23:03 42.89903 -76.37385 10681 ft 318 kts 308°
2026-04-27 23:04 42.91279 -76.39726 10263 ft 315 kts 308°
2026-04-27 23:04 42.92640 -76.42050 9882 ft 310 kts 307°
2026-04-27 23:04 42.93948 -76.44305 9570 ft 304 kts 307°
2026-04-27 23:04 42.95265 -76.46558 9231 ft 301 kts 308°
2026-04-27 23:05 42.96564 -76.48761 8959 ft 297 kts 308°
2026-04-27 23:05 42.97873 -76.50948 8591 ft 297 kts 307°
2026-04-27 23:05 42.99194 -76.53150 8121 ft 302 kts 308°
2026-04-27 23:05 43.00747 -76.55057 7831 ft 300 kts 327°
2026-04-27 23:06 43.02668 -76.56088 7544 ft 296 kts 349°
2026-04-27 23:06 43.04692 -76.56114 7297 ft 290 kts 10°
2026-04-27 23:06 43.06599 -76.55282 6930 ft 288 kts 27°
2026-04-27 23:06 43.08259 -76.53795 6689 ft 280 kts 43°
2026-04-27 23:07 43.09722 -76.52095 6497 ft 273 kts 42°
2026-04-27 23:07 43.11061 -76.50338 6360 ft 261 kts 54°
2026-04-27 23:07 43.11825 -76.48143 6143 ft 253 kts 80°
2026-04-27 23:07 43.11831 -76.45794 5864 ft 237 kts 102°
2026-04-27 23:08 43.11546 -76.43662 5636 ft 220 kts 102°
2026-04-27 23:08 43.11301 -76.41640 5401 ft 212 kts 101°
2026-04-27 23:08 43.11125 -76.39586 5137 ft 224 kts 98°
2026-04-27 23:08 43.10963 -76.37454 4828 ft 230 kts 98°
2026-04-27 23:09 43.10829 -76.35291 4550 ft 222 kts 96°
2026-04-27 23:09 43.10747 -76.33249 4249 ft 209 kts 95°
2026-04-27 23:09 43.10696 -76.31342 3954 ft 188 kts 94°
2026-04-27 23:09 43.10664 -76.29642 3654 ft 172 kts 93°
2026-04-27 23:10 43.10614 -76.28026 3368 ft 173 kts 95°
2026-04-27 23:10 43.10564 -76.26348 3053 ft 179 kts 94°
2026-04-27 23:10 43.10551 -76.24640 2790 ft 177 kts 93°
2026-04-27 23:10 43.10544 -76.22990 2505 ft 168 kts 92°
2026-04-27 23:11 43.10552 -76.21486 2231 ft 140 kts 92°
2026-04-27 23:11 43.10600 -76.20261 1934 ft 120 kts 90°
2026-04-27 23:11 43.10649 -76.19172 1629 ft 110 kts 92°
2026-04-27 23:11 43.10664 -76.18146 1385 ft 108 kts 91°
2026-04-27 23:12 43.10669 -76.17171 1190 ft 99 kts 90°
2026-04-27 23:12 43.10696 -76.16242 973 ft 99 kts 87°
2026-04-27 23:12 43.10731 -76.15281 818 ft 105 kts 87°
2026-04-27 23:12 43.10767 -76.14270 675 ft 108 kts 89°
2026-04-27 23:13 43.10806 -76.13238 524 ft 107 kts 89°
2026-04-27 23:13 43.10831 -76.12327 426 ft 84 kts 89°
2026-04-27 23:13 43.10868 -76.11846 414 ft 23 kts 43°
2026-04-27 23:13 43.10952 -76.11830 411 ft 0 kts 320°
2026-04-27 23:15 43.10967 -76.11889 417 ft 17 kts 268°
2026-04-27 23:15 43.10961 -76.12107 421 ft 28 kts 268°
2026-04-27 23:15 43.10952 -76.12360 423 ft 26 kts 267°
2026-04-27 23:15 43.10944 -76.12598 420 ft 24 kts 267°
2026-04-27 23:16 43.10939 -76.12835 428 ft 26 kts 269°
2026-04-27 23:16 43.10978 -76.12980 427 ft 23 kts 316°
2026-04-27 23:16 43.11160 -76.13073 416 ft 15 kts 24°
2026-04-27 23:16 43.11207 -76.13021 418 ft 11 kts 31°
2026-04-27 23:17 43.11232 -76.12987 422 ft 0 kts 76°